Portada
METAR-TAF:

METAR-TAF

Aeropuertos :

Gonabad, Irán

latitud: 34-22-51N, longitud: 58-38-23E, altitud: 1100 m

Observación

El informe se hizo hace 23 minutos, a las 00:00 UTC
Viento 2 kt del noroeste
Temperatura 23°C
Humedad 20%
Presión 1013 hPa

METAR: OIMD 200000Z AUTO 31002KT //// // ////// 23/M01 Q1013

Hora: 04:53 (00:23 UTC)


TAF: falta

Observaciones y pronósticos meteorológicos de más de 4000 aeropuertos (mensajes METAR y TAF).

Los puntos amarillos y rojos representan las estaciones disponibles.

Ponga el ratón en el punto deseado para ver el nombre de la estación.

Haga clic para ver las observaciones y los pronósticos meteorológicos.

Para cambiar el mapa : haga clic en los botones verdes con una cruz de color negro para hacer un zoom, en el botón verde con un guión para alejar o en las flechas verdes para mapas adyacentes.


METAR-TAF: